AVA9342 SKBO-SKRG

Flight info

Callsign AVA9342
Flight time 0h 27m
Altitude 20000
Route TOBKI1S VASIL W36 NIRSO NIRSO3C
Aircraft A320/M-SDE3FGHIRWY/LB1

Departure

Time 2026-04-25 03:01
Airport El Dorado International Airport (SKBO)

Arrival

Time 2026-04-25 03:28
Airport Jose Maria Córdova International Airport (SKRG)
Time Latitude Longitude Altitude Speed Heading
2026-04-25 02:00 4.69743 -74.14656 8370 ft 0 kts 217°
2026-04-25 02:34 4.69746 -74.14654 8370 ft 3 kts 217°
2026-04-25 02:34 4.69765 -74.14640 8370 ft 4 kts 220°
2026-04-25 02:35 4.69776 -74.14620 8370 ft 4 kts 287°
2026-04-25 02:35 4.69764 -74.14597 8370 ft 4 kts 307°
2026-04-25 02:35 4.69760 -74.14593 8370 ft 4 kts 307°
2026-04-25 02:35 4.69776 -74.14614 8370 ft 4 kts 307°
2026-04-25 02:36 4.69791 -74.14633 8370 ft 1 kts 307°
2026-04-25 02:36 4.69791 -74.14634 8370 ft 0 kts 307°
2026-04-25 02:40 4.69796 -74.14640 8370 ft 4 kts 307°
2026-04-25 02:40 4.69822 -74.14676 8370 ft 7 kts 307°
2026-04-25 02:41 4.69847 -74.14708 8370 ft 5 kts 307°
2026-04-25 02:41 4.69873 -74.14742 8370 ft 9 kts 306°
2026-04-25 02:41 4.69918 -74.14804 8370 ft 12 kts 307°
2026-04-25 02:41 4.69940 -74.14876 8371 ft 11 kts 242°
2026-04-25 02:42 4.69881 -74.14926 8371 ft 11 kts 218°
2026-04-25 02:42 4.69870 -74.14994 8371 ft 11 kts 298°
2026-04-25 02:42 4.69916 -74.15055 8371 ft 11 kts 307°
2026-04-25 02:42 4.69964 -74.15120 8371 ft 12 kts 307°
2026-04-25 02:43 4.70016 -74.15188 8371 ft 13 kts 307°
2026-04-25 02:43 4.70068 -74.15259 8371 ft 13 kts 307°
2026-04-25 02:43 4.70126 -74.15333 8370 ft 14 kts 307°
2026-04-25 02:43 4.70185 -74.15410 8370 ft 13 kts 308°
2026-04-25 02:44 4.70242 -74.15485 8371 ft 14 kts 306°
2026-04-25 02:44 4.70300 -74.15563 8370 ft 14 kts 307°
2026-04-25 02:44 4.70361 -74.15645 8370 ft 15 kts 307°
2026-04-25 02:44 4.70425 -74.15729 8370 ft 15 kts 307°
2026-04-25 02:45 4.70483 -74.15804 8370 ft 13 kts 308°
2026-04-25 02:45 4.70539 -74.15877 8370 ft 14 kts 307°
2026-04-25 02:45 4.70596 -74.15954 8371 ft 14 kts 307°
2026-04-25 02:45 4.70656 -74.16033 8370 ft 14 kts 307°
2026-04-25 02:46 4.70716 -74.16113 8371 ft 13 kts 308°
2026-04-25 02:46 4.70772 -74.16185 8371 ft 13 kts 307°
2026-04-25 02:46 4.70822 -74.16252 8371 ft 12 kts 306°
2026-04-25 02:46 4.70871 -74.16317 8371 ft 12 kts 308°
2026-04-25 02:47 4.70920 -74.16382 8371 ft 12 kts 308°
2026-04-25 02:47 4.70968 -74.16444 8371 ft 10 kts 307°
2026-04-25 02:47 4.71004 -74.16492 8370 ft 8 kts 307°
2026-04-25 02:47 4.71019 -74.16511 8370 ft 0 kts 307°
2026-04-25 02:48 4.71022 -74.16515 8371 ft 4 kts 307°
2026-04-25 02:48 4.71056 -74.16561 8371 ft 11 kts 307°
2026-04-25 02:49 4.71098 -74.16617 8370 ft 4 kts 307°
2026-04-25 02:51 4.71102 -74.16622 8370 ft 4 kts 307°
2026-04-25 02:51 4.71121 -74.16648 8370 ft 4 kts 306°
2026-04-25 02:52 4.71145 -74.16679 8370 ft 8 kts 307°
2026-04-25 02:52 4.71182 -74.16728 8371 ft 9 kts 307°
2026-04-25 02:52 4.71223 -74.16783 8371 ft 10 kts 307°
2026-04-25 02:52 4.71252 -74.16844 8371 ft 8 kts 264°
2026-04-25 02:53 4.71226 -74.16874 8371 ft 0 kts 215°
2026-04-25 02:57 4.71199 -74.16891 8371 ft 11 kts 206°
2026-04-25 02:57 4.71126 -74.16893 8371 ft 11 kts 171°
2026-04-25 02:58 4.71063 -74.16894 8372 ft 6 kts 205°
2026-04-25 02:58 4.71036 -74.16887 8372 ft 0 kts 128°
2026-04-25 03:00 4.70994 -74.16833 8372 ft 39 kts 128°
2026-04-25 03:00 4.70677 -74.16416 8374 ft 109 kts 127°
2026-04-25 03:00 4.70099 -74.15651 8373 ft 163 kts 127°
2026-04-25 03:00 4.69359 -74.14670 8795 ft 179 kts 127°
2026-04-25 03:01 4.68585 -74.13691 9535 ft 178 kts 136°
2026-04-25 03:01 4.67469 -74.13233 9983 ft 175 kts 184°
2026-04-25 03:01 4.66344 -74.13623 10428 ft 174 kts 222°
2026-04-25 03:01 4.65598 -74.14564 10879 ft 172 kts 238°
2026-04-25 03:02 4.64944 -74.15577 11246 ft 178 kts 238°
2026-04-25 03:02 4.64232 -74.16676 11391 ft 197 kts 238°
2026-04-25 03:02 4.63449 -74.17881 11531 ft 215 kts 238°
2026-04-25 03:02 4.62598 -74.19189 11653 ft 234 kts 237°
2026-04-25 03:03 4.61715 -74.20618 11906 ft 246 kts 246°
2026-04-25 03:03 4.61252 -74.22304 12183 ft 257 kts 259°
2026-04-25 03:03 4.60895 -74.24141 12374 ft 280 kts 259°
2026-04-25 03:03 4.60515 -74.26143 12581 ft 303 kts 259°
2026-04-25 03:04 4.60191 -74.28279 12755 ft 326 kts 264°
2026-04-25 03:04 4.59992 -74.30640 12954 ft 347 kts 267°
2026-04-25 03:04 4.59869 -74.33100 13439 ft 355 kts 268°
2026-04-25 03:05 4.60067 -74.37986 14654 ft 362 kts 287°
2026-04-25 03:05 4.61125 -74.40244 15231 ft 365 kts 303°
2026-04-25 03:05 4.62562 -74.42348 15849 ft 368 kts 305°
2026-04-25 03:05 4.64031 -74.44462 16436 ft 371 kts 305°
2026-04-25 03:06 4.65519 -74.46588 17009 ft 374 kts 305°
2026-04-25 03:06 4.67025 -74.48735 17574 ft 379 kts 305°
2026-04-25 03:06 4.68541 -74.50903 18149 ft 381 kts 305°
2026-04-25 03:06 4.70061 -74.53086 18663 ft 384 kts 305°
2026-04-25 03:07 4.71597 -74.55297 19150 ft 387 kts 305°
2026-04-25 03:07 4.73143 -74.57526 19644 ft 391 kts 305°
2026-04-25 03:07 4.74704 -74.59778 20082 ft 394 kts 305°
2026-04-25 03:07 4.76269 -74.62039 20199 ft 395 kts 304°
2026-04-25 03:08 4.77842 -74.64311 20199 ft 395 kts 305°
2026-04-25 03:08 4.79407 -74.66569 20186 ft 395 kts 305°
2026-04-25 03:08 4.80962 -74.68807 20170 ft 395 kts 305°
2026-04-25 03:08 4.82556 -74.71102 20149 ft 395 kts 305°
2026-04-25 03:09 4.84104 -74.73334 20107 ft 395 kts 305°
2026-04-25 03:09 4.85676 -74.75602 20069 ft 395 kts 305°
2026-04-25 03:09 4.87246 -74.77869 20056 ft 395 kts 305°
2026-04-25 03:09 4.88814 -74.80132 20044 ft 395 kts 305°
2026-04-25 03:10 4.90384 -74.82396 20039 ft 395 kts 305°
2026-04-25 03:10 4.91952 -74.84656 20035 ft 395 kts 305°
2026-04-25 03:10 4.93522 -74.86923 20035 ft 395 kts 305°
2026-04-25 03:10 4.95083 -74.89175 20020 ft 394 kts 305°
2026-04-25 03:11 4.96653 -74.91439 20021 ft 394 kts 305°
2026-04-25 03:11 4.98220 -74.93696 20036 ft 394 kts 305°
2026-04-25 03:11 4.99788 -74.95961 20038 ft 395 kts 305°
2026-04-25 03:11 5.01351 -74.98224 20043 ft 395 kts 305°
2026-04-25 03:12 5.02914 -75.00488 20049 ft 395 kts 305°
2026-04-25 03:12 5.04466 -75.02731 20052 ft 395 kts 305°
2026-04-25 03:12 5.06036 -75.04997 20058 ft 395 kts 305°
2026-04-25 03:12 5.07603 -75.07260 20066 ft 395 kts 305°
2026-04-25 03:13 5.09150 -75.09496 20085 ft 395 kts 305°
2026-04-25 03:13 5.10715 -75.11757 20099 ft 395 kts 305°
2026-04-25 03:13 5.12283 -75.14025 20134 ft 396 kts 305°
2026-04-25 03:13 5.13856 -75.16300 20147 ft 396 kts 305°
2026-04-25 03:14 5.15441 -75.18564 20159 ft 396 kts 308°
2026-04-25 03:14 5.17233 -75.20653 20170 ft 395 kts 312°
2026-04-25 03:14 5.19063 -75.22715 20190 ft 395 kts 311°
2026-04-25 03:14 5.20885 -75.24774 20204 ft 394 kts 311°
2026-04-25 03:15 5.22706 -75.26834 20218 ft 394 kts 311°
2026-04-25 03:15 5.24527 -75.28899 20238 ft 394 kts 311°
2026-04-25 03:15 5.26345 -75.30961 20236 ft 394 kts 311°
2026-04-25 03:15 5.28163 -75.33017 20252 ft 394 kts 311°
2026-04-25 03:16 5.29981 -75.35069 20262 ft 394 kts 311°
2026-04-25 03:16 5.31869 -75.37020 20271 ft 393 kts 320°
2026-04-25 03:16 5.34120 -75.38572 20276 ft 393 kts 332°
2026-04-25 03:16 5.36628 -75.39611 20087 ft 385 kts 344°
2026-04-25 03:17 5.39233 -75.40088 19837 ft 376 kts 355°
2026-04-25 03:17 5.41814 -75.40221 19557 ft 368 kts 356°
2026-04-25 03:17 5.44359 -75.40354 19102 ft 366 kts 356°
2026-04-25 03:17 5.46912 -75.40495 18613 ft 365 kts 356°
2026-04-25 03:18 5.49447 -75.40641 18138 ft 364 kts 356°
2026-04-25 03:18 5.51969 -75.40785 17567 ft 364 kts 356°
2026-04-25 03:18 5.54532 -75.40929 16809 ft 371 kts 356°
2026-04-25 03:18 5.57082 -75.41071 16334 ft 360 kts 356°
2026-04-25 03:19 5.59547 -75.41207 15966 ft 350 kts 356°
2026-04-25 03:19 5.61946 -75.41341 15885 ft 335 kts 356°
2026-04-25 03:19 5.64167 -75.41464 15827 ft 315 kts 356°
2026-04-25 03:19 5.66322 -75.41583 15629 ft 299 kts 356°
2026-04-25 03:20 5.68345 -75.41697 15252 ft 291 kts 356°
2026-04-25 03:20 5.70344 -75.41808 14878 ft 284 kts 356°
2026-04-25 03:20 5.72292 -75.41916 14506 ft 276 kts 356°
2026-04-25 03:20 5.74187 -75.42023 14125 ft 269 kts 356°
2026-04-25 03:21 5.76037 -75.42127 13751 ft 263 kts 356°
2026-04-25 03:21 5.77842 -75.42179 13375 ft 257 kts
2026-04-25 03:21 5.79617 -75.42098 12999 ft 253 kts
2026-04-25 03:21 5.81359 -75.42080 12625 ft 249 kts 359°
2026-04-25 03:22 5.83068 -75.42092 12380 ft 239 kts 359°
2026-04-25 03:22 5.84715 -75.42105 12311 ft 235 kts 359°
2026-04-25 03:22 5.86343 -75.42116 12238 ft 234 kts 359°
2026-04-25 03:22 5.87978 -75.42126 12127 ft 235 kts 359°
2026-04-25 03:23 5.89613 -75.42137 11854 ft 235 kts 359°
2026-04-25 03:23 5.91210 -75.42148 11557 ft 237 kts 359°
2026-04-25 03:23 5.92856 -75.42158 11241 ft 238 kts 359°
2026-04-25 03:23 5.94520 -75.42169 10925 ft 240 kts 359°
2026-04-25 03:24 5.96196 -75.42180 10603 ft 241 kts 359°
2026-04-25 03:24 5.97848 -75.42191 10293 ft 233 kts 360°
2026-04-25 03:24 5.99307 -75.42201 10025 ft 220 kts 360°
2026-04-25 03:24 6.00795 -75.42210 9725 ft 208 kts 359°
2026-04-25 03:25 6.02195 -75.42219 9465 ft 195 kts 360°
2026-04-25 03:25 6.03488 -75.42227 9223 ft 180 kts
2026-04-25 03:25 6.04692 -75.42237 8976 ft 166 kts
2026-04-25 03:25 6.05829 -75.42243 8764 ft 161 kts
2026-04-25 03:26 6.06944 -75.42251 8555 ft 160 kts 360°
2026-04-25 03:26 6.08057 -75.42257 8337 ft 159 kts
2026-04-25 03:26 6.09167 -75.42265 8130 ft 160 kts 360°
2026-04-25 03:26 6.10283 -75.42269 7914 ft 160 kts
2026-04-25 03:27 6.11397 -75.42277 7695 ft 158 kts 360°
2026-04-25 03:27 6.12487 -75.42285 7484 ft 158 kts 359°
2026-04-25 03:27 6.13584 -75.42292 7278 ft 157 kts
2026-04-25 03:27 6.14673 -75.42303 7068 ft 157 kts 359°
2026-04-25 03:28 6.15727 -75.42311 6980 ft 137 kts 360°
2026-04-25 03:28 6.16510 -75.42314 6996 ft 88 kts 359°
2026-04-25 03:28 6.16882 -75.42319 7019 ft 34 kts 350°
2026-04-25 03:28 6.17017 -75.42360 7018 ft 14 kts 336°
2026-04-25 03:29 6.17077 -75.42392 7017 ft 8 kts 333°
2026-04-25 03:29 6.17122 -75.42417 7017 ft 8 kts 328°
2026-04-25 03:29 6.17177 -75.42451 7017 ft 11 kts 327°
2026-04-25 03:29 6.17191 -75.42518 7017 ft 8 kts 268°
2026-04-25 03:30 6.17190 -75.42567 7017 ft 6 kts 268°
2026-04-25 03:30 6.17154 -75.42613 7016 ft 13 kts 188°
2026-04-25 03:30 6.17067 -75.42629 7016 ft 10 kts 212°
2026-04-25 03:30 6.17025 -75.42661 7016 ft 6 kts 217°
2026-04-25 03:31 6.16995 -75.42683 7016 ft 6 kts 217°
2026-04-25 03:31 6.16962 -75.42717 7016 ft 4 kts 228°
2026-04-25 03:31 6.16951 -75.42740 7016 ft 3 kts 274°
2026-04-25 03:31 6.16967 -75.42754 7016 ft 3 kts 326°
2026-04-25 03:32 6.16980 -75.42762 7016 ft 2 kts 329°
2026-04-25 03:32 6.16988 -75.42766 7016 ft 0 kts 329°
2026-04-25 03:32 6.16989 -75.42767 7016 ft 0 kts 329°